Probability
0 0 0 0 0 0 0 0 0 0 0 0 0 0 0 0 0 0 0 0 0 0 0 0 0 0 0 0 0 0 0 0 0 0 0 1 2 2 2 2 1 0 0 0
0 0 0 0 0 0 0 0 0 0 0 0 0 0 0 0 0 0 0 0 0 0 0 0 0 0 0 0 0 0 0 0 0 0 0 0 1 1 1 1 0 0 0 0
0 0 0 0 0 0 0 0 0 0 0 0 0 0 0 0 0 0 0 0 0 0 0 0 0 0 0 0 0 0 0 0 0 0 0 0 0 0 0 0 0 0 0 0
0 0 0 0 0 0 0 0 0 0 0 0 0 0 0 0 0 0 0 0 0 0 0 0 0 0 0 0 0 0 0 0 1 0 0 0 0 0 0 0 0 0 0 0
0 0 0 0 0 0 0 0 0 0 0 0 0 0 0 0 0 0 0 0 0 0 0 0 0 0 0 0 0 0 0 0 0 0 0 0 0 0 0 0 0 0 0 0
0 0 0 0 0 0 0 0 0 0 0 0 0 0 0 0 0 0 0 0 0 0 0 0 0 0 0 0 0 0 0 0 0 0 0 0 0 0 0 0 0 0 0 0
0 0 0 0 0 0 0 0 0 0 0 0 0 0 0 0 0 0 0 0 0 0 0 0 0 0 0 0 0 0 0 0 0 0 0 1 0 0 0 0 0 0 0 0
0 0 0 0 0 0 0 0 0 0 0 0 0 0 0 0 0 0 0 0 0 0 0 0 0 0 0 0 0 0 0 0 0 0 0 0 0 0 0 0 0 0 0 0
0 0 0 0 0 0 0 0 0 0 0 0 0 0 0 0 0 0 0 0 0 0 0 0 0 0 0 0 0 0 0 0 0 0 0 0 0 0 0 0 0 0 0 0
0 0 0 0 0 0 0 0 0 0 0 0 0 0 0 0 0 0 0 0 0 0 0 0 0 0 0 0 0 0 0 0 0 0 0 0 0 0 0 0 0 0 0 0
0 0 0 0 0 0 0 0 0 0 0 0 0 0 0 0 0 0 0 0 0 0 0 0 0 0 0 0 0 0 0 0 0 0 0 0 0 0 0 0 0 0 0 0
0 0 0 0 0 0 0 0 0 0 0 0 0 0 0 0 0 0 0 0 0 0 0 0 0 0 0 0 0 0 0 0 0 0 0 0 0 0 0 0 0 0 0 0
0 0 0 0 0 0 0 0 0 0 0 0 0 0 0 0 0 0 0 0 0 0 0 0 0 0 0 0 0 0 0 0 0 0 0 0 0 0 0 0 0 0 0 0
0 0 0 0 0 0 0 0 0 0 0 0 0 0 0 0 0 0 0 0 0 0 0 0 0 0 0 0 0 0 0 0 0 0 0 0 0 0 0 0 0 0 0 0
0 0 0 0 0 0 0 0 0 0 0 0 0 0 0 0 0 0 0 0 0 0 0 0 0 0 0 0 0 0 0 0 0 0 0 0 0 0 0 0 0 0 0 0
0 0 0 0 0 0 0 0 0 0 0 0 0 0 0 0 0 0 0 0 0 0 0 0 0 0 0 0 0 0 0 0 0 0 0 0 0 0 0 0 0 0 0 0
0 0 0 0 0 0 0 0 0 0 0 0 0 0 0 0 0 0 0 0 0 0 0 0 0 0 0 0 0 0 0 0 0 0 0 0 0 0 0 0 0 0 0 0
0 0 0 0 0 0 0 0 0 0 0 0 0 0 0 0 0 0 0 0 0 0 0 0 0 0 0 0 0 0 0 0 0 0 0 0 0 0 0 0 0 0 0 0
0 0 0 0 0 0 0 0 0 0 0 0 0 0 0 0 0 0 0 0 0 0 0 0 0 0 0 0 0 0 0 0 0 0 0 0 0 0 0 0 0 0 0 0
0 0 0 0 0 0 0 0 0 0 0 0 0 0 0 0 0 0 0 0 0 0 0 0 0 0 0 0 0 0 0 0 0 0 0 0 0 0 0 0 0 0 0 0
0 0 0 0 0 0 0 0 0 0 0 0 0 0 0 0 0 0 0 0 0 0 0 0 0 0 0 0 0 0 0 0 0 0 0 0 0 0 0 0 0 0 0 0
0 0 0 0 0 0 0 0 0 0 0 0 0 0 0 0 0 0 0 0 0 0 0 0 0 0 0 0 0 0 0 0 0 0 0 0 0 0 0 0 0 0 0 0
0 0 0 0 0 0 0 0 0 0 0 0 0 0 0 0 0 0 0 0 0 0 0 0 0 0 0 0 0 0 0 0 0 0 0 0 0 0 0 0 0 0 0 0
0 0 0 0 0 0 0 0 0 0 0 0 0 0 0 0 0 0 0 0 0 0 0 0 0 0 0 0 0 0 0 0 0 0 0 0 0 0 0 0 0 0 0 0
0 0 0 0 0 0 0 0 0 0 0 0 0 0 0 0 0 0 0 0 0 0 0 0 0 0 0 0 0 0 0 0 0 0 0 0 0 0 0 0 0 0 0 0
0 0 0 0 0 0 0 0 0 0 0 0 0 0 0 0 0 0 0 0 0 0 0 0 0 0 0 0 0 0 0 0 0 0 0 0 0 0 0 0 0 0 0 0
0 0 0 0 0 0 0 0 0 0 0 0 0 0 0 0 0 0 0 0 0 0 0 0 0 0 0 0 0 0 0 0 0 0 0 0 0 0 0 0 0 0 0 0
Wind_Speed
4 4 3 4 6 5 3 4 4 5 5 7 9 10 11 11 10 10 10 11 11 10 10 10 9 9 8 7 7 6 4 3 2 2 1 1 2 2 3 3 4 5 5 5
3 2 2 4 6 5 3 4 5 5 5 7 9 8 9 11 11 11 11 12 12 11 11 10 10 10 9 8 8 7 5 3 2 1 1 1 1 2 2 3 4 4 4 4
3 4 3 2 5 4 3 4 4 5 6 8 9 10 10 10 10 10 12 12 12 11 11 10 10 9 9 9 8 7 5 4 3 2 1 1 1 1 2 3 3 4 4 4
3 2 2 2 3 4 4 3 4 5 7 9 10 10 7 8 10 11 12 13 13 11 11 10 9 9 9 8 7 6 6 4 3 2 2 1 1 1 1 2 2 3 4 4
2 2 3 0 3 5 5 3 4 6 9 10 10 7 4 8 11 11 12 11 11 11 11 10 9 9 8 8 7 7 6 5 4 2 2 2 1 1 1 2 2 2 3 4
1 3 3 2 5 6 5 2 5 7 9 9 9 6 6 10 12 12 12 11 11 10 10 9 9 9 8 7 7 7 7 6 5 4 2 2 2 2 2 2 2 2 2 3
2 3 2 3 6 4 2 4 7 7 7 7 6 6 9 12 12 11 11 11 11 10 9 9 9 8 8 8 8 8 8 7 5 4 3 2 2 2 2 2 1 1 2 2
2 3 2 4 3 2 4 5 6 7 7 7 8 9 9 10 11 11 11 12 12 10 9 9 9 8 8 8 9 8 7 6 5 4 3 2 2 2 2 2 2 2 2 2
3 2 3 2 3 3 4 6 7 7 8 7 8 9 10 10 10 10 11 11 10 10 10 9 9 9 8 9 9 8 7 6 5 4 3 2 2 2 1 2 2 2 2 2
4 5 5 5 5 5 5 7 7 7 7 7 8 9 9 9 9 10 10 10 10 10 10 10 10 9 8 9 8 7 6 5 5 4 3 2 1 1 1 1 1 2 2 2
6 6 6 5 5 6 7 7 7 7 7 7 8 9 9 9 9 9 9 9 9 9 9 10 10 9 9 8 8 7 6 5 5 4 3 2 2 2 2 2 2 2 2 1
5 4 5 6 5 5 6 7 7 7 8 7 7 8 9 8 8 9 9 9 9 9 10 10 10 9 8 8 7 6 5 5 4 3 3 2 2 2 3 2 3 3 2 2
6 5 6 7 6 5 6 7 7 7 7 7 7 7 8 8 8 9 9 10 10 10 10 10 9 9 8 8 7 6 5 5 4 3 3 2 2 1 2 2 3 3 2 2
6 5 6 5 5 6 6 6 6 6 6 6 7 7 7 8 8 9 9 9 10 9 9 9 9 9 9 8 7 6 6 5 4 3 3 2 2 1 1 1 1 2 2 2
5 5 6 5 6 5 5 5 6 6 6 6 6 6 7 8 9 9 9 9 9 9 8 8 9 9 9 8 7 7 5 4 4 3 3 2 2 1 1 1 1 2 2 2
5 4 5 6 6 6 5 5 6 7 7 7 7 7 8 8 8 8 8 8 8 9 9 8 9 9 8 7 7 5 5 6 5 3 3 2 2 1 1 1 1 1 1 2
4 5 5 6 6 7 6 6 6 7 7 7 7 8 8 7 7 7 8 8 8 8 8 8 9 9 8 7 6 5 4 5 5 3 2 2 2 2 1 1 1 1 1 2
6 6 6 6 6 7 7 7 6 6 6 7 7 7 6 7 7 8 8 8 8 7 7 8 8 8 7 7 6 4 4 4 3 3 2 2 2 2 1 1 1 1 2 2
5 6 6 6 6 6 6 6 6 6 6 6 6 6 6 7 7 8 8 7 7 8 8 8 11 8 7 8 7 4 4 4 3 3 3 3 3 2 2 1 1 2 2 2
5 5 5 6 5 5 5 6 6 6 5 5 5 6 6 7 7 7 7 6 5 6 8 9 8 7 7 7 7 4 4 4 4 3 3 2 2 2 2 2 2 2 2 1
5 5 5 5 6 5 5 5 5 6 5 5 5 6 7 7 6 6 6 6 6 7 8 9 6 6 6 6 6 4 4 4 3 3 3 3 2 2 2 2 2 2 2 2
5 5 5 5 5 6 5 5 5 5 5 5 5 5 6 6 6 6 5 5 6 9 7 5 5 7 8 8 4 4 4 4 3 3 3 3 3 2 2 3 2 2 2 2
5 5 5 5 5 6 6 4 4 5 5 5 5 5 5 5 5 5 6 5 5 9 7 5 8 11 11 6 4 4 4 4 4 3 3 3 3 3 3 3 3 3 3 3
5 5 5 5 4 4 5 5 5 4 5 5 5 5 5 5 4 4 5 8 10 10 6 8 11 11 9 4 4 4 4 4 4 4 4 4 3 3 3 4 4 3 3 4
4 4 4 4 4 4 5 5 5 5 5 4 5 5 4 4 4 5 5 6 9 9 6 8 10 10 6 4 4 4 4 4 4 4 4 4 4 4 4 4 4 4 4 4
4 4 4 4 4 4 4 3 4 4 4 4 4 4 4 4 5 5 5 6 7 8 6 5 6 6 5 4 5 5 5 5 5 4 4 4 4 4 4 4 5 4 4 4
4 3 3 3 3 3 3 3 4 4 4 4 5 5 5 5 4 5 5 5 5 5 5 5 5 4 5 5 5 5 5 4 4 4 4 4 4 4 4 5 4 4 4 4
Wind_Direction
305 314 332 352 350 355 4 333 306 314 315 336 342 337 338 343 350 356 357 354 351 348 347 346 346 346 345 341 338 332 324 316 301 286 253 228 219 205 195 190 189 189 190 191
280 305 335 8 0 348 340 334 322 319 320 340 335 337 342 347 350 351 350 347 344 343 343 343 343 340 339 339 335 327 316 317 316 308 290 256 235 203 192 189 188 186 189 188
290 313 287 325 349 340 347 345 323 316 326 334 335 338 341 344 348 348 345 342 339 338 337 336 335 334 333 332 329 324 322 318 320 314 298 290 290 212 198 196 191 188 190 193
299 308 269 55 35 348 331 357 3 339 333 334 328 321 328 348 348 344 340 337 336 334 332 331 331 331 329 328 327 330 331 326 324 320 306 295 290 237 217 211 201 198 196 198
284 284 272 129 12 349 312 317 3 336 332 337 335 317 338 0 348 337 332 330 329 329 327 328 331 331 330 332 332 334 332 329 330 320 301 285 286 272 238 227 215 211 206 202
287 286 298 16 347 326 274 271 8 339 330 333 336 326 335 340 333 331 332 331 330 328 329 331 334 332 334 334 334 332 328 324 322 320 300 284 282 282 256 232 217 206 205 208
285 269 285 1 334 314 275 333 337 325 322 322 317 307 314 320 325 328 330 331 332 330 331 333 333 333 335 335 333 327 321 320 319 316 307 292 291 288 258 226 206 198 192 199
268 258 289 19 1 336 319 324 317 316 317 311 305 307 314 320 324 328 330 332 333 331 332 334 336 335 334 333 327 321 320 320 318 317 313 308 303 293 258 210 189 192 188 182
255 282 339 297 282 297 310 305 311 311 311 307 305 306 313 318 321 324 327 329 330 329 329 333 336 334 330 327 325 322 323 324 319 317 314 313 305 292 264 220 197 197 200 196
263 265 282 282 276 293 300 298 303 304 303 303 302 305 310 314 318 322 325 327 327 327 328 330 332 331 326 324 323 322 323 323 321 319 321 327 321 302 283 253 220 207 209 210
262 281 294 272 281 296 299 299 303 307 305 301 301 304 308 310 315 318 320 322 323 324 323 324 326 327 330 328 327 325 323 320 319 319 324 340 343 332 302 295 284 264 239 222
267 283 280 289 302 299 295 298 302 304 304 305 303 302 307 308 311 314 317 321 322 323 323 323 325 326 331 331 328 326 322 324 322 321 322 324 328 344 2 336 343 328 314 291
270 286 279 286 296 297 293 297 299 296 294 298 301 300 304 306 309 313 315 320 321 321 321 323 325 327 331 331 330 330 326 325 321 319 320 317 314 319 337 4 15 13 9 6
270 279 278 286 294 301 298 299 300 298 297 296 297 300 303 304 308 311 315 318 318 318 321 325 328 331 334 334 332 330 327 326 321 318 317 314 311 315 316 322 341 355 15 35
269 263 271 291 295 298 303 304 304 303 306 306 304 303 306 307 307 310 315 318 320 322 326 330 331 332 334 332 330 328 328 327 325 326 327 321 320 332 339 340 339 342 352 15
293 278 274 281 289 300 305 304 302 303 307 308 308 308 308 307 306 310 316 322 323 324 327 328 328 329 329 331 329 326 328 334 329 331 331 330 336 342 344 350 347 345 343 350
286 291 291 293 293 295 296 295 294 298 303 304 306 308 310 311 312 316 319 322 319 315 319 324 325 327 329 331 328 324 325 328 333 331 332 334 333 329 330 335 328 327 333 351
267 278 282 285 288 290 293 296 297 300 302 304 307 309 312 313 313 315 319 321 321 321 324 326 326 328 330 333 330 326 325 328 332 331 329 330 328 324 326 326 323 318 325 342
283 283 286 285 286 287 292 296 298 299 302 305 307 307 307 307 308 312 317 321 323 324 329 330 331 331 331 334 334 329 331 331 331 333 331 329 329 328 324 314 308 311 320 333
298 298 297 296 296 292 293 297 300 300 302 304 304 305 308 310 312 313 315 313 313 314 318 323 326 326 327 329 333 328 328 326 326 325 324 323 321 320 318 312 309 312 320 327
301 302 301 299 298 296 294 295 296 298 302 303 300 300 303 307 311 312 312 314 322 323 321 324 327 325 325 327 328 326 327 324 322 319 316 315 314 313 309 306 304 303 304 306
298 300 301 302 301 302 302 299 295 296 301 303 300 300 304 309 314 312 305 302 314 323 324 321 323 326 328 327 326 327 324 319 314 311 308 307 304 301 299 298 294 291 289 288
296 297 300 301 300 301 305 303 298 296 297 300 302 303 303 305 308 309 312 317 318 321 322 320 323 327 331 332 328 325 322 318 312 307 303 301 296 293 291 290 286 283 281 281
299 301 301 303 302 299 303 308 306 300 296 296 296 299 302 304 304 299 298 312 321 321 320 322 325 329 336 335 328 323 318 312 307 303 301 297 293 288 285 284 282 279 276 277
297 297 298 300 299 297 299 305 307 306 305 304 307 308 303 296 297 306 309 311 318 322 320 325 331 333 334 325 322 319 314 307 303 301 297 296 294 291 287 284 280 278 275 273
294 294 292 289 288 292 298 303 304 308 310 310 312 312 309 306 303 305 308 312 315 319 320 319 322 325 322 319 316 313 310 311 313 310 303 298 293 289 284 283 282 279 276 274
294 294 295 297 299 300 301 300 301 304 307 306 306 309 312 312 311 314 314 313 314 315 314 315 315 315 313 312 311 309 307 306 305 302 299 295 292 289 287 285 282 281 279 276